Wind_Speed
47 46 44 43 39 35 32 32 32 23 11 9 16 17 16 16 18 19 14 18 22 40 38 36 40 41 45 70 69 68 64 61 49 46 42 39 37 39 40 39 39 31 20 16
45 47 46 45 37 30 23 28 31 25 14 13 12 18 17 15 13 15 12 15 19 35 45 37 47 44 39 61 72 70 67 65 55 51 47 44 43 38 40 40 36 31 23 17
47 49 46 43 33 30 20 23 29 26 19 11 18 14 17 18 17 13 12 12 17 27 39 44 43 46 38 45 67 74 70 65 60 54 45 39 42 41 42 42 38 27 22 19
49 50 43 38 30 30 23 21 27 26 21 16 14 14 17 15 11 13 12 11 13 19 23 45 45 44 35 41 54 71 71 65 58 53 48 42 44 36 37 39 25 29 24 22
50 48 39 34 30 28 23 21 27 23 23 23 14 11 10 7 15 9 7 7 13 17 22 37 44 41 39 46 49 68 71 67 62 56 48 44 45 42 40 36 30 29 26 29
49 45 37 33 31 26 20 20 26 25 25 22 15 12 13 13 11 11 10 7 7 17 19 25 41 45 46 39 49 65 71 69 65 58 50 45 46 42 39 38 32 30 27 21
47 42 39 34 30 25 18 20 23 23 25 20 18 22 21 16 16 12 13 7 7 14 17 27 43 47 46 41 47 63 69 70 66 62 57 50 45 44 42 37 35 31 29 24
46 39 39 36 31 26 15 16 24 22 26 23 24 27 27 23 13 13 8 8 8 7 7 21 26 49 39 40 42 50 66 71 68 62 59 52 50 46 45 43 40 35 31 29
45 38 37 36 29 32 18 14 18 19 20 19 21 24 28 26 16 11 6 5 4 2 1 9 18 46 44 42 36 43 62 68 68 63 59 58 57 50 45 42 41 37 33 31
44 36 36 34 27 28 28 20 17 17 17 20 23 28 24 23 16 10 12 8 5 1 3 3 7 27 49 37 30 42 44 58 61 62 61 62 49 51 43 45 45 41 37 34
39 34 32 32 31 28 23 23 24 18 13 17 22 23 22 18 19 14 9 9 6 3 6 5 5 8 50 44 47 42 41 46 53 59 61 57 48 45 51 53 47 44 41 36
32 31 30 30 32 33 32 31 30 24 20 20 22 23 17 19 17 12 11 10 11 2 8 4 10 27 30 46 39 45 43 51 58 53 62 63 55 52 55 51 50 46 43 37
28 29 30 31 31 30 29 28 27 25 23 22 23 24 21 18 18 18 16 13 11 6 10 8 13 16 14 27 37 40 40 47 52 55 63 58 51 55 56 51 51 48 43 40
27 25 25 26 27 28 28 28 28 27 24 22 23 26 23 24 21 18 18 15 7 8 3 4 9 18 16 18 24 42 38 38 49 54 60 58 53 54 53 56 55 51 44 39
31 21 20 22 25 28 29 30 32 31 28 23 22 27 21 22 15 18 15 16 10 6 6 5 7 16 20 21 24 34 34 33 41 51 56 57 57 50 56 55 55 53 49 41
33 26 18 18 21 26 28 28 31 31 28 22 20 21 17 14 15 15 17 12 8 3 6 9 11 7 15 26 22 22 32 42 43 48 57 48 57 58 53 56 54 53 52 45
35 27 22 18 16 20 26 31 34 32 30 24 18 19 23 21 20 17 15 13 9 4 1 1 3 6 5 6 27 25 34 37 43 53 55 56 50 55 61 55 52 51 51 45
36 32 25 22 18 17 19 24 31 30 28 22 19 21 21 21 19 17 17 16 15 15 10 3 1 5 8 3 6 15 43 42 33 54 64 61 52 54 56 60 55 52 51 48
36 33 30 24 21 18 15 17 22 25 23 20 22 21 24 23 23 21 19 17 17 15 15 18 13 5 2 2 6 7 30 47 44 41 57 65 63 60 59 56 56 58 54 51
36 33 32 27 22 21 14 12 15 15 18 18 17 17 20 22 22 21 20 19 21 22 16 13 15 11 17 9 7 3 6 48 50 38 38 64 70 60 58 52 53 55 61 59
34 33 31 31 29 23 17 9 8 10 11 13 16 16 17 18 19 16 18 13 12 16 16 18 13 13 12 11 9 12 16 34 47 42 32 37 59 60 57 60 56 55 55 58
32 31 31 30 28 26 20 15 11 9 8 9 8 10 13 14 16 13 13 13 11 14 15 12 11 9 8 9 3 2 9 22 32 44 44 37 39 55 68 71 65 63 58 56
30 31 32 29 27 26 25 21 17 13 12 11 10 8 7 9 12 10 10 14 16 18 18 14 15 11 10 10 9 6 7 14 27 42 49 44 43 44 52 69 75 75 70 63
29 29 31 31 29 26 24 22 20 17 15 14 14 11 6 5 6 9 11 12 13 13 14 15 16 16 14 16 14 10 7 9 17 24 29 32 41 42 40 43 72 76 75 72
27 28 30 32 31 26 25 23 22 19 18 15 14 16 16 13 11 9 8 9 8 9 10 13 16 16 15 16 14 14 15 14 11 15 22 36 38 43 45 41 37 68 74 75
27 27 28 28 31 31 28 24 22 20 20 19 16 16 17 18 19 17 14 14 15 14 12 9 9 13 16 16 16 18 21 20 17 12 11 19 21 29 40 47 44 40 44 72
30 26 26 25 27 30 31 25 23 22 22 21 21 19 16 18 18 19 20 22 21 21 20 20 19 13 14 17 17 18 19 18 19 15 13 18 16 19 28 35 43 42 46 47
Wind_Direction
342 342 340 342 339 337 343 346 346 340 314 280 302 315 315 312 303 312 273 244 233 217 203 162 169 184 199 202 203 206 212 216 208 211 221 221 220 223 231 236 241 246 242 205
343 343 343 344 344 342 354 359 354 349 335 282 336 344 342 327 308 311 319 241 236 219 220 180 168 180 184 202 199 204 207 212 206 205 210 209 212 216 220 223 235 229 215 164
344 346 347 347 350 348 344 352 358 358 348 327 331 338 335 324 304 307 300 289 247 225 225 214 166 176 181 201 202 202 206 209 207 207 207 207 208 211 218 227 221 207 182 171
345 349 351 354 354 352 352 346 348 354 352 323 309 302 309 325 332 306 291 287 272 244 249 230 194 169 174 192 207 200 205 208 204 202 201 202 206 210 220 228 214 205 184 181
348 352 355 0 358 354 353 357 359 357 356 349 344 316 310 305 326 343 307 287 263 255 249 236 235 173 172 178 203 200 202 205 201 198 199 200 203 204 207 213 205 197 184 174
351 353 357 359 360 359 358 1 5 7 9 12 11 0 333 319 336 341 322 290 279 252 252 243 241 199 180 164 194 201 200 202 200 193 197 200 205 203 206 208 197 200 199 171
354 356 358 0 0 359 3 12 17 19 13 10 9 7 3 332 321 307 299 320 305 265 247 242 235 203 180 165 191 201 200 200 199 194 196 203 199 204 206 202 198 194 189 186
358 360 2 4 7 8 10 9 22 36 32 27 22 17 8 358 337 346 321 337 333 291 242 238 240 212 187 166 183 200 203 199 200 197 196 200 202 202 207 200 199 193 193 183
1 4 6 7 18 16 17 9 9 19 21 10 8 3 8 10 11 29 27 348 352 345 105 243 241 224 187 170 175 195 202 201 203 194 194 200 205 203 205 199 201 196 191 188
6 9 14 17 16 17 22 15 2 359 353 347 349 353 2 9 20 29 30 18 21 95 129 210 248 231 204 189 175 192 202 203 204 193 195 200 206 203 201 203 203 200 198 197
14 20 22 23 22 18 13 7 8 2 342 336 346 358 5 10 23 24 23 11 21 126 114 105 128 219 216 191 195 201 207 212 207 197 198 201 201 204 202 207 206 204 206 203
28 40 37 33 29 31 31 28 27 24 15 10 4 2 3 10 16 21 21 12 2 121 112 87 140 193 215 205 189 196 209 215 213 204 202 203 203 203 207 207 210 210 209 206
26 36 41 45 42 36 31 28 20 18 15 15 11 12 14 4 2 5 1 352 355 3 156 115 160 176 191 224 215 187 196 209 215 212 205 210 208 208 210 208 212 214 211 207
17 28 36 40 33 25 19 16 16 12 11 12 14 14 15 13 9 354 353 355 346 13 146 162 180 180 189 187 216 201 192 196 206 213 211 211 213 212 213 213 212 217 214 208
9 13 23 31 28 21 14 10 11 10 9 12 17 11 3 2 355 358 351 355 13 12 47 61 209 199 209 179 203 210 204 195 195 205 207 210 214 214 213 215 215 214 217 212
4 4 1 14 21 17 11 8 9 8 2 1 10 1 1 357 344 354 337 347 9 65 69 92 122 155 213 204 197 206 210 203 203 201 207 211 217 217 216 216 217 213 218 216
5 0 355 344 360 12 10 10 9 5 3 354 344 359 8 13 7 12 18 27 34 43 57 207 119 92 71 204 223 224 221 202 202 192 207 209 216 217 218 219 215 214 217 216
358 1 358 349 337 345 358 8 10 6 3 8 30 22 19 19 18 23 23 31 44 48 53 61 59 141 130 163 210 238 237 223 209 198 202 211 218 210 216 221 217 215 217 214
352 357 359 352 347 340 342 358 5 9 10 21 38 41 38 33 32 35 38 41 45 44 55 64 75 80 74 293 243 254 244 227 219 196 198 209 214 226 214 220 218 215 206 204
350 349 353 356 351 348 332 338 357 4 18 20 29 36 36 38 35 38 40 53 58 53 62 69 50 46 29 329 276 125 267 243 226 226 201 204 214 222 217 214 220 219 224 223
348 347 347 348 352 350 342 319 343 347 11 20 22 28 30 30 28 29 30 40 63 51 63 65 48 37 17 34 263 262 269 243 233 233 239 212 210 209 215 222 223 224 224 227
348 349 345 343 345 349 343 337 316 316 339 1 19 25 17 23 28 20 7 18 26 24 24 42 54 30 28 52 110 267 271 254 244 241 239 248 240 215 215 223 222 226 226 227
350 353 348 343 340 345 346 338 330 314 292 307 332 358 10 13 18 16 0 354 353 351 -0 17 28 26 34 28 31 33 306 275 266 255 253 259 246 226 225 220 225 228 227 228
345 352 352 347 339 337 340 340 334 320 307 296 292 295 340 5 10 9 357 1 3 0 14 12 16 19 26 27 26 11 333 276 263 267 269 265 256 258 239 230 225 227 231 231
332 342 351 351 347 340 338 337 333 330 320 314 300 285 281 288 301 310 322 336 337 345 2 359 353 355 4 13 8 3 2 350 293 262 257 265 262 254 252 252 253 222 221 227
318 324 335 342 344 341 335 334 330 327 324 326 317 300 291 285 285 285 282 286 292 302 319 329 332 334 339 348 349 347 349 353 342 308 259 250 243 245 251 249 252 245 237 225
312 316 321 328 330 335 336 330 332 331 325 323 323 317 308 306 296 287 281 279 281 282 286 292 292 291 300 312 321 327 329 339 344 323 294 247 237 220 227 237 243 239 247 249
Height
5607 5596 5586 5577 5567 5557 5549 5543 5537 5529 5526 5526 5523 5522 5520 5519 5517 5515 5515 5518 5521 5525 5529 5531 5539 5548 5555 5565 5581 5595 5612 5624 5639 5652 5658 5669 5676 5681 5689 5693 5698 5706 5714 5722
5603 5592 5581 5571 5562 5554 5549 5542 5535 5530 5526 5524 5522 5520 5519 5517 5516 5515 5515 5515 5517 5520 5524 5528 5535 5543 5549 5555 5571 5586 5599 5614 5629 5638 5647 5656 5664 5675 5680 5684 5692 5700 5711 5719
5598 5588 5578 5567 5559 5552 5546 5542 5536 5531 5527 5525 5522 5520 5518 5515 5513 5514 5514 5514 5516 5518 5520 5523 5533 5539 5547 5550 5560 5575 5590 5605 5620 5636 5648 5658 5661 5666 5673 5677 5683 5698 5709 5715
5595 5585 5575 5565 5557 5551 5546 5542 5537 5532 5527 5524 5521 5519 5517 5515 5512 5511 5511 5513 5513 5514 5516 5517 5525 5533 5544 5548 5554 5570 5586 5602 5617 5630 5637 5645 5654 5664 5669 5673 5690 5692 5707 5713
5592 5582 5574 5565 5557 5551 5546 5542 5537 5531 5526 5522 5519 5518 5515 5513 5511 5510 5509 5511 5510 5511 5512 5513 5516 5526 5538 5540 5550 5563 5578 5594 5610 5623 5633 5640 5647 5654 5660 5671 5682 5691 5699 5707
5591 5581 5573 5565 5558 5551 5547 5543 5538 5532 5528 5523 5521 5519 5516 5513 5511 5509 5507 5508 5508 5507 5510 5512 5511 5520 5529 5534 5545 5557 5570 5586 5603 5618 5627 5634 5639 5652 5659 5667 5677 5687 5695 5707
5591 5581 5573 5565 5558 5553 5548 5545 5541 5536 5531 5526 5523 5519 5514 5510 5508 5507 5504 5506 5505 5504 5508 5508 5512 5520 5528 5534 5543 5554 5565 5579 5595 5609 5618 5626 5641 5645 5653 5663 5672 5680 5688 5696
5591 5582 5574 5566 5559 5553 5549 5546 5543 5539 5535 5531 5526 5521 5515 5509 5506 5505 5504 5504 5505 5503 5505 5509 5511 5521 5528 5536 5545 5553 5560 5574 5588 5602 5614 5628 5635 5640 5647 5656 5666 5674 5682 5690
5592 5584 5576 5569 5563 5556 5551 5548 5545 5542 5538 5535 5529 5524 5519 5513 5507 5506 5505 5504 5503 5504 5506 5509 5511 5520 5528 5538 5545 5550 5559 5569 5582 5598 5610 5618 5623 5634 5643 5654 5662 5670 5677 5684
5595 5586 5579 5572 5567 5561 5555 5550 5547 5543 5539 5535 5530 5526 5522 5517 5512 5509 5507 5505 5505 5505 5506 5508 5510 5518 5528 5533 5540 5549 5555 5563 5576 5592 5601 5610 5616 5628 5640 5648 5658 5664 5671 5679
5598 5590 5582 5576 5571 5565 5559 5554 5549 5543 5539 5535 5532 5528 5523 5519 5516 5512 5509 5508 5506 5507 5508 5509 5510 5517 5525 5534 5540 5547 5554 5563 5572 5586 5595 5604 5612 5624 5633 5635 5649 5658 5666 5675
5603 5594 5586 5580 5576 5571 5565 5559 5553 5547 5542 5539 5534 5529 5525 5522 5519 5515 5513 5511 5508 5508 5510 5512 5515 5521 5523 5531 5539 5545 5554 5559 5568 5581 5589 5597 5610 5619 5625 5635 5644 5652 5661 5670
5608 5599 5592 5585 5580 5575 5569 5562 5556 5551 5546 5541 5536 5532 5528 5524 5520 5518 5515 5513 5511 5509 5510 5512 5514 5518 5521 5525 5533 5539 5550 5555 5564 5577 5587 5596 5606 5613 5622 5629 5638 5647 5656 5665
5611 5604 5596 5589 5584 5579 5573 5566 5560 5554 5549 5544 5539 5533 5529 5525 5522 5519 5516 5514 5512 5511 5511 5512 5514 5518 5522 5525 5529 5538 5547 5553 5562 5573 5583 5592 5599 5606 5615 5623 5632 5641 5650 5659
5612 5606 5600 5593 5587 5582 5576 5569 5563 5557 5552 5546 5541 5536 5531 5526 5523 5521 5518 5515 5513 5513 5511 5511 5512 5515 5518 5522 5528 5536 5542 5548 5556 5566 5576 5584 5590 5598 5607 5615 5625 5635 5644 5654
5613 5607 5601 5596 5590 5584 5579 5572 5566 5560 5554 5548 5544 5538 5533 5529 5525 5521 5518 5515 5514 5514 5514 5514 5514 5515 5519 5524 5529 5533 5541 5548 5556 5563 5572 5580 5585 5594 5602 5610 5620 5630 5638 5648
5614 5608 5601 5597 5592 5587 5583 5576 5569 5561 5556 5551 5546 5541 5535 5531 5527 5524 5520 5517 5515 5515 5515 5515 5516 5515 5517 5522 5530 5533 5537 5541 5550 5558 5566 5576 5581 5588 5597 5606 5615 5623 5632 5642
5614 5608 5602 5597 5592 5586 5582 5577 5571 5564 5559 5554 5548 5543 5539 5535 5532 5528 5525 5522 5519 5517 5516 5516 5515 5518 5521 5523 5524 5525 5533 5541 5551 5555 5562 5571 5576 5581 5589 5599 5609 5617 5626 5636
5613 5607 5602 5597 5592 5586 5582 5577 5574 5568 5565 5558 5552 5548 5544 5539 5536 5533 5530 5528 5524 5521 5520 5518 5519 5520 5522 5522 5523 5525 5531 5539 5548 5551 5555 5564 5572 5576 5583 5591 5601 5611 5620 5628
5612 5606 5601 5596 5591 5585 5581 5577 5575 5570 5566 5561 5557 5552 5548 5545 5540 5537 5535 5532 5529 5527 5526 5524 5524 5526 5525 5522 5521 5524 5527 5534 5542 5548 5553 5560 5565 5572 5577 5585 5593 5603 5613 5621
5610 5604 5598 5594 5589 5585 5581 5577 5574 5571 5567 5563 5559 5556 5552 5549 5545 5542 5540 5537 5534 5532 5531 5529 5528 5526 5523 5520 5519 5520 5523 5531 5538 5545 5551 5555 5561 5565 5570 5578 5586 5594 5603 5612
5608 5602 5596 5592 5588 5584 5581 5576 5573 5570 5568 5564 5560 5556 5553 5551 5548 5545 5543 5541 5539 5536 5533 5530 5527 5526 5525 5523 5522 5521 5521 5526 5531 5538 5545 5549 5553 5557 5563 5570 5578 5585 5594 5602
5604 5600 5594 5590 5586 5581 5578 5575 5572 5568 5566 5564 5561 5558 5554 5551 5548 5546 5545 5543 5541 5538 5536 5532 5529 5526 5525 5523 5520 5518 5518 5521 5524 5528 5534 5539 5544 5550 5554 5559 5566 5575 5584 5591
5601 5597 5593 5587 5582 5579 5575 5573 5570 5567 5564 5561 5560 5558 5556 5552 5549 5546 5544 5543 5541 5539 5535 5534 5531 5528 5526 5523 5520 5519 5519 5517 5518 5520 5523 5529 5535 5542 5546 5549 5555 5563 5571 5578
5598 5593 5588 5584 5579 5576 5572 5568 5565 5563 5561 5558 5556 5554 5553 5551 5549 5546 5544 5543 5540 5538 5536 5534 5530 5527 5525 5523 5522 5521 5519 5515 5514 5515 5515 5516 5522 5529 5534 5539 5545 5551 5560 5565
5594 5589 5585 5581 5576 5571 5568 5565 5561 5558 5556 5554 5552 5550 5548 5547 5545 5543 5541 5540 5538 5536 5534 5533 5530 5526 5523 5520 5518 5515 5512 5511 5509 5505 5505 5509 5510 5512 5519 5526 5534 5540 5547 5553
5586 5583 5580 5576 5572 5567 5563 5560 5557 5554 5550 5547 5546 5544 5543 5541 5539 5537 5536 5534 5533 5532 5531 5528 5526 5525 5522 5519 5516 5513 5511 5510 5506 5503 5502 5503 5504 5505 5508 5513 5520 5526 5533 5537